Location: Caixon
(43.4106°N, 0.0273°E)
Time: 16:21:39
(UTC+00:00)

ATLAS 2AS CENTAUR R/B - Pass Details

Date: 16 October 2021
Orbit: 958 x 1254 km, 63.7° (Epoch: 27 November)

Event Time Altitude Azimuth Distance (km) Brightness Sun altitude
Exits shadow 02:22:28 35° 11° (NNE) 1,875 4.1 -41.5°
Drops below altitude 10° 02:26:50 10° 31° (NNE) 3,156 5.7 -40.8°
Sets 02:29:38 0° 36° (NE) 4,088 6.5 -40.4°
